Location: Pitton
(51.0667°N, 1.7000°W)
Time: 16:13:40
(UTC+00:00)

Cosmos 1959 Rocket - Pass Details

Date: 17 September 2019
Orbit: 947 x 997 km, 82.9° (Epoch: 19 October)

Event Time Altitude Azimuth Distance (km) Brightness Sun altitude
Rises 20:31:20 0° 349° (N) 3,632 8.1 -20.7°
Reaches altitude 10° 20:33:50 10° 348° (NNW) 2,684 7.4 -21.0°
Maximum altitude 20:39:58 80° 263° (W) 973 4.5 -21.9°
Enters shadow 20:43:44 25° 179° (S) 1,828 5.6 -22.3°
